Regional Weather Roundup
Issued by NWS Jackson, KY

Home | Current Version | Previous Version | Graphics & Text | Print | Product List | Glossary On
Versions: 1 2 3 4 5 6 7 8 9 10 11 12 13 14 15 16 17 18 19 20 21 22 23 24 25 26 27 28 29 30 31 32 33 34 35 36 37 38 39 40 41 42 43 44 45 46 47 48 49 50
000
ASUS43 KJKL 302210
RWRJKL

EAST KENTUCKY HOURLY WEATHER ROUNDUP
NATIONAL WEATHER SERVICE JACKSON KY
600 PM EDT SUN AUG 30 2015

NOTE: "FAIR" INDICATES FEW OR NO CLOUDS BELOW 12,000 FEET WITH
NO SIGNIFICANT WEATHER AND/OR OBSTRUCTIONS TO VISIBILITY.

* THESE REPORTS ARE NOT UNDER NWS QUALITY CONTROL AND MAY NOT
  REPORT WEATHER SUCH AS PRECIPITATION AND FOG.

KYZ079-080-083-085-087-088-110-112-115-119-120-302300
...EASTERN KENTUCKY...

CITY           SKY/WX    TMP DP  RH WIND       PRES   REMARKS
JACKSON        MOSUNNY   80  63  55 CALM      30.12F
LONDON         PTSUNNY   81  59  47 S6        30.11F
SOMERSET*      PTSUNNY   79  61  53 S5        30.11S
MONTICELLO*    PTSUNNY   80  67  64 CALM      30.12F
WILLIAMSBURG*  SUNNY     75  64  69 CALM      30.11
MIDDLESBORO*   CLOUDY    77  68  75 CALM      30.12F
HAZARD APT*    CLEAR     81  64  57 CALM      30.12S
BLACK MTN*       N/A     68  63  83 CALM        N/A
PIKEVILLE APT* SUNNY     77  66  69 CALM      30.14S
BIG SANDY*     PTCLDY    80  66  61 S6        30.12S
MOREHEAD APT*  MOCLDY    81  63  54 S6        30.11S
$$

KYZ035-036-041-042-044-050-067-078-099-302300
...CENTRAL KENTUCKY...

CITY           SKY/WX    TMP DP  RH WIND       PRES   REMARKS
MT STERLING*   PTSUNNY   81  63  54 SW6       30.10F
FLEMING/MASON* SUNNY     82  68  61 S7        30.08F
DANVILLE*      PTSUNNY   82  63  51 SW7       30.10F
RICHMOND*      PTSUNNY   81  61  50 SW7       30.10S
LEXINGTON      PTSUNNY   80  67  64 SW9       30.08S
FRANKFORT      CLOUDY    80  64  58 S12       30.06S
$$

KYZ091>093-OHZ055-061-077-WVZ005-015-034-035-042-302300
...SOUTHERN OHIO/WEST VIRGINIA...

CITY           SKY/WX    TMP DP  RH WIND       PRES   REMARKS
COVINGTON      PTSUNNY   77  63  61 S8        30.06S
COLUMBUS       PTSUNNY   83  67  58 SE7       30.03F
DAYTON         MOSUNNY   83  66  56 S8        30.05F
WILMINGTON     MOSUNNY   81  66  60 SW9       30.05F
HUNTINGTON     PTSUNNY   82  66  58 S9        30.08S
CHARLESTON     CLOUDY    81  65  58 SW6       30.10S
PINEVILLE*     PTSUNNY   77  69  77 MISG      30.20S
BECKLEY        CLOUDY    73  63  70 W3        30.18F
BLUEFIELD      CLOUDY    76  60  57 VRB3      30.21F
$$

VAZ002-007-008-TNZ017-027-036-066-071-302300
...SOUTHWEST VIRGINIA/EAST TENNESSEE...

CITY           SKY/WX    TMP DP  RH WIND       PRES   REMARKS
WISE*          CLOUDY    73  63  68 NE3       30.21S
JONESVILLE*    MOCLDY    77  55  47 CALM      30.14F
ABINGDON*      PTSUNNY   79  58  48 SE6       30.16F
BRISTOL        CLOUDY    78  59  51 E6        30.13F
KNOXVILLE      LGT RAIN  70  67  90 SE3       30.08F
OAK RIDGE      CLOUDY    81  67  62 E3        30.10F
CROSSVILLE     CLOUDY    75  62  64 E5        30.13F
NASHVILLE      PTSUNNY   79  62  56 SE5       30.08F
$$

...KEY TO REMARKS...
VSB - VISIBILITY IN MILES
WCI - WIND CHILL INDEX
HX  - HEAT INDEX

$$



USA.gov is the U.S. government's official web portal to all federal, state and local government web resources and services.